Change the Weather History Date:

Friday, December 7, 2012

  Actual Average (KOMA) Record (KOMA)
Temperature  
Mean Temperature 37 °F 28 °F  
Max Temperature 42 °F 37 °F 61 °F (1918)
Min Temperature 32 °F 19 °F -15 °F (1882)
Degree Days  
Heating Degree Days 28 37  
Month to date heating degree days 250  
Since 1 July heating degree days 1520  
Cooling Degree Days 0 0  
Month to date cooling degree days 0  
Year to date cooling degree days 1113  
Moisture  
Dew Point 27 °F    
Average Humidity 67    
Maximum Humidity 90    
Minimum Humidity 48    
Precipitation  
Precipitation 0.00 in 0.04 in 1.30 in (1892)
Month to date precipitation 0.28  
Year to date precipitation 29.86  
Snow  
Snow 0.00 in 0.20 in - ()
Month to date snowfall 1.4  
Since 1 July snowfall 4.2  
Snow Depth -    
Sea Level Pressure  
Sea Level Pressure 29.93 in    
Wind  
Wind Speed 7 mph (NNE)    
Max Wind Speed 13 mph    
Max Gust Speed -    
Visibility 10 miles    
Events      
T = Trace of Precipitation, MM = Missing Value Source: NWS Daily Summary

Daily Weather History Graph

Daily Weather History Graph

Search for Another Location

Airport or City:

Trip Planner

Search our weather history database for the weather conditions in past years. The results will help you decide how hot, cold, wet, or windy it might be!

Date:

Astronomy

Dec. 07, 2012 Rise Set
Actual Time 7:37 AM CST 4:54 PM CST
Civil Twilight 7:06 AM CST 5:25 PM CST
Nautical Twilight 6:31 AM CST 6:00 PM CST
Astronomical Twilight 5:58 AM CST 6:34 PM CST
Moon 12:54 AM CST (12/7) 12:55 PM CST (12/7)
Length of Visible Light 10h 19m
Length of Day
9h 17m
Last Quarter, 38% of the Moon is Illuminated
Dec 7
Last Quarter
Dec 13
New
Dec 19
First Quarter
Dec 28
Full
Jan 4
Last Quarter

Hourly Weather History & Observations

Time (CST) Temp. Windchill Dew Point Humidity Pressure Visibility Wind Dir Wind Speed Gust Speed Precip Events Conditions
12:15 AM 40.1 °F 36.1 °F 28.2 °F 63% 29.98 in 10.0 mi North 5.8 mph - N/A   Overcast
12:35 AM 39.7 °F 34.9 °F 28.0 °F 63% 29.98 in 10.0 mi North 6.9 mph - N/A   Overcast
12:55 AM 39.6 °F 33.5 °F 28.2 °F 64% 29.98 in 10.0 mi North 9.2 mph - N/A   Overcast
1:15 AM 39.6 °F 34.7 °F 28.4 °F 64% 29.98 in 10.0 mi North 6.9 mph - N/A   Overcast
1:35 AM 39.6 °F 34.7 °F 28.4 °F 64% 29.97 in 10.0 mi North 6.9 mph - N/A   Overcast
1:55 AM 39.4 °F 34.5 °F 28.4 °F 65% 29.97 in 10.0 mi North 6.9 mph - N/A   Overcast
2:15 AM 39.2 °F 35.0 °F 28.4 °F 65% 29.97 in 10.0 mi North 5.8 mph - N/A   Overcast
2:35 AM 38.3 °F 33.2 °F 28.4 °F 68% 29.96 in 10.0 mi North 6.9 mph - N/A   Overcast
2:55 AM 38.3 °F 33.2 °F 28.4 °F 68% 29.96 in 10.0 mi North 6.9 mph - N/A   Overcast
3:15 AM 38.3 °F 32.5 °F 28.4 °F 68% 29.96 in 10.0 mi North 8.1 mph - N/A   Overcast
3:35 AM 37.8 °F 33.3 °F 28.2 °F 68% 29.96 in 10.0 mi North 5.8 mph - N/A   Overcast
3:55 AM 37.8 °F 31.8 °F 28.4 °F 69% 29.95 in 10.0 mi NNE 8.1 mph - N/A   Overcast
4:15 AM 37.6 °F 31.6 °F 28.4 °F 69% 29.94 in 10.0 mi NNE 8.1 mph - N/A   Overcast
4:35 AM 37.4 °F 31.4 °F 28.4 °F 70% 29.94 in 10.0 mi North 8.1 mph - N/A   Overcast
4:55 AM 36.9 °F 30.7 °F 28.8 °F 72% 29.94 in 10.0 mi NE 8.1 mph - N/A   Overcast
5:15 AM 36.3 °F 30.1 °F 28.8 °F 74% 29.93 in 10.0 mi NNE 8.1 mph - N/A   Overcast
5:35 AM 36.7 °F 31.2 °F 29.1 °F 74% 29.94 in 10.0 mi NNE 6.9 mph - N/A   Overcast
5:55 AM 36.7 °F 32.0 °F 29.1 °F 74% 29.94 in 10.0 mi NNE 5.8 mph - N/A   Overcast
6:15 AM 36.3 °F 31.6 °F 28.9 °F 75% 29.95 in 10.0 mi NNE 5.8 mph - N/A   Mostly Cloudy
6:35 AM 35.8 °F 29.4 °F 28.8 °F 76% 29.94 in 10.0 mi NE 8.1 mph - N/A   Mostly Cloudy
6:55 AM 34.9 °F 28.3 °F 28.4 °F 77% 29.94 in 10.0 mi ENE 8.1 mph - N/A   Scattered Clouds
7:15 AM 33.8 °F 27.7 °F 28.0 °F 79% 29.93 in 10.0 mi ENE 6.9 mph - N/A   Clear
7:35 AM 33.1 °F 26.9 °F 27.9 °F 81% 29.93 in 10.0 mi ENE 6.9 mph - N/A   Clear
7:55 AM 33.6 °F 27.5 °F 28.2 °F 81% 29.93 in 10.0 mi ENE 6.9 mph - N/A   Clear
8:15 AM 34.9 °F 29.9 °F 29.1 °F 79% 29.93 in 10.0 mi ENE 5.8 mph - N/A   Clear
8:35 AM 36.1 °F 29.3 °F 29.1 °F 76% 29.92 in 10.0 mi ENE 9.2 mph - N/A   Clear
8:55 AM 36.1 °F 29.3 °F 28.8 °F 75% 29.92 in 10.0 mi East 9.2 mph - N/A   Clear
9:15 AM 36.7 °F 32.0 °F 28.2 °F 71% 29.93 in 10.0 mi NE 5.8 mph - N/A   Clear
9:35 AM 36.9 °F 30.7 °F 28.2 °F 71% 29.93 in 10.0 mi ENE 8.1 mph - N/A   Clear
9:55 AM 37.8 °F 31.8 °F 28.6 °F 69% 29.91 in 10.0 mi East 8.1 mph - N/A   Clear
10:15 AM 39.9 °F 32.5 °F 27.0 °F 60% 29.91 in 10.0 mi East 12.7 mph - N/A   Clear
10:35 AM 39.6 °F 34.0 °F 25.9 °F 58% 29.91 in 10.0 mi East 8.1 mph - N/A   Clear
10:55 AM 41.7 °F 38.0 °F 25.3 °F 52% 29.92 in 10.0 mi NE 5.8 mph - N/A   Clear
11:15 AM 41.9 °F - 24.1 °F 49% 29.93 in 10.0 mi Calm Calm - N/A   Clear
11:35 AM 41.9 °F 40.0 °F 24.3 °F 50% 29.93 in 10.0 mi North 3.5 mph - N/A   Clear
11:55 AM 42.1 °F 38.4 °F 23.9 °F 49% 29.93 in 10.0 mi NNW 5.8 mph - N/A   Mostly Cloudy
12:15 PM 41.9 °F 40.0 °F 23.4 °F 48% 29.91 in 10.0 mi NNW 3.5 mph - N/A   Mostly Cloudy
12:35 PM 41.9 °F 39.0 °F 23.5 °F 48% 29.91 in 10.0 mi North 4.6 mph - N/A   Mostly Cloudy
12:55 PM 41.9 °F 36.3 °F 24.4 °F 50% 29.91 in 10.0 mi North 9.2 mph - N/A   Overcast
1:15 PM 41.2 °F 36.6 °F 24.1 °F 51% 29.92 in 10.0 mi North 6.9 mph - N/A   Overcast
1:35 PM 40.6 °F 34.8 °F 24.8 °F 53% 29.91 in 10.0 mi NNW 9.2 mph - N/A   Overcast
1:55 PM 40.1 °F 34.7 °F 24.8 °F 54% 29.91 in 10.0 mi North 8.1 mph - N/A   Overcast
2:15 PM 39.6 °F 33.0 °F 25.3 °F 57% 29.90 in 10.0 mi North 10.4 mph - N/A   Overcast
2:35 PM 38.7 °F 31.8 °F 25.7 °F 60% 29.89 in 10.0 mi North 10.4 mph - N/A   Overcast
2:55 PM 38.7 °F 31.8 °F 25.3 °F 59% 29.89 in 10.0 mi NNE 10.4 mph - N/A   Overcast
3:15 PM 38.7 °F 32.4 °F 25.0 °F 58% 29.89 in 10.0 mi NNE 9.2 mph - N/A   Overcast
3:35 PM 38.8 °F 33.2 °F 25.3 °F 58% 29.89 in 10.0 mi NNE 8.1 mph - N/A   Overcast
3:55 PM 39.2 °F 34.2 °F 25.3 °F 58% 29.88 in 10.0 mi ENE 6.9 mph - N/A   Overcast
4:15 PM 39.4 °F 33.2 °F 24.8 °F 56% 29.86 in 10.0 mi ENE 9.2 mph - N/A   Overcast
4:35 PM 40.1 °F 34.7 °F 24.8 °F 54% 29.87 in 10.0 mi ENE 8.1 mph - N/A   Overcast
4:55 PM 39.2 °F 34.2 °F 24.8 °F 56% 29.88 in 10.0 mi ENE 6.9 mph - N/A   Overcast
5:15 PM 37.0 °F 32.4 °F 24.3 °F 60% 29.88 in 10.0 mi NE 5.8 mph - N/A   Scattered Clouds
5:35 PM 36.5 °F 31.8 °F 24.3 °F 61% 29.89 in 7.0 mi ENE 5.8 mph - N/A   Scattered Clouds
5:55 PM 36.1 °F 32.3 °F 24.3 °F 62% 29.89 in 10.0 mi NE 4.6 mph - N/A   Clear
6:15 PM 36.1 °F 32.3 °F 24.1 °F 62% 29.91 in 10.0 mi North 4.6 mph - N/A   Clear
6:35 PM 35.8 °F 31.9 °F 24.6 °F 64% 29.91 in 10.0 mi North 4.6 mph - N/A   Clear
7:15 PM 34.9 °F 29.9 °F 24.6 °F 66% 29.93 in 10.0 mi North 5.8 mph - N/A   Mostly Cloudy
7:35 PM 35.1 °F 30.1 °F 25.2 °F 67% 29.93 in 10.0 mi North 5.8 mph - N/A   Overcast
7:55 PM 35.1 °F 30.1 °F 25.7 °F 69% 29.93 in 10.0 mi North 5.8 mph - N/A   Overcast
8:35 PM 33.8 °F 28.6 °F 27.5 °F 78% 29.93 in 10.0 mi NNE 5.8 mph - N/A   Mostly Cloudy
8:55 PM 32.7 °F 26.4 °F 27.3 °F 81% 29.94 in 10.0 mi NNE 6.9 mph - N/A   Clear
9:15 PM 32.2 °F 25.8 °F 27.5 °F 83% 29.94 in 10.0 mi NNE 6.9 mph - N/A   Scattered Clouds
9:35 PM 32.0 °F 24.8 °F 27.7 °F 84% 29.94 in 10.0 mi NNE 8.1 mph - N/A   Scattered Clouds
9:55 PM 32.4 °F 25.3 °F 28.0 °F 84% 29.94 in 10.0 mi NNE 8.1 mph - N/A   Scattered Clouds
10:15 PM 32.5 °F 27.1 °F 28.4 °F 85% 29.96 in 10.0 mi North 5.8 mph - N/A   Mostly Cloudy
10:35 PM 32.5 °F 28.1 °F 28.8 °F 86% 29.96 in 10.0 mi North 4.6 mph - N/A   Overcast
10:55 PM 32.4 °F 26.0 °F 28.8 °F 87% 29.97 in 10.0 mi NNW 6.9 mph - N/A   Overcast
11:15 PM 32.4 °F 25.3 °F 29.1 °F 88% 29.96 in 10.0 mi North 8.1 mph - N/A   Overcast
11:35 PM 32.2 °F 25.0 °F 29.3 °F 89% 29.97 in 10.0 mi NNW 8.1 mph - N/A   Overcast
11:55 PM 32.5 °F 24.2 °F 30.0 °F 90% 29.97 in 10.0 mi North 10.4 mph - N/A   Overcast